{"data":{"norad_id":68741,"intl_designator":"2026-082P","name":"STARLINK-36314","alt_names":[],"object_type":"PAYLOAD","status":"ACTIVE","operator":null,"country":"US","launch_date":"2026-04-15","launch_site_code":"AFWTR","launch_vehicle":null,"mission":null,"orbit_class":"UNKNOWN","rcs_meters":null,"size_class":null,"mass_kg":null,"dimensions":null,"purposes":["comms"],"wikipedia_slug":null,"has_3d_model":false,"image_url":null,"decayed_at":null,"tle_current":{"epoch":"2026-05-25T04:00:03.998880Z","epoch_age_seconds":54589,"freshness":"FRESH","line1":"1 68741U 26082P   26145.16671295  .00004283  00000+0  80376-4 0  9993","line2":"2 68741  97.2852   8.7890 0001587  97.2303  17.7276 15.49187223  6006","mean_motion":15.49187223,"eccentricity":0.0001587,"inclination_deg":97.2852,"raan_deg":8.789,"arg_perigee_deg":97.2303,"mean_anomaly_deg":17.7276,"bstar":8.0376e-5,"rev_number":600,"period_min":92.951967239404,"perigee_km":418.02374423504,"apogee_km":420.18118804159,"semimajor_km":6797.2394661383,"source":"CELESTRAK","updated_at":"2026-05-25T13:38:22.028138Z"}}}